When you browse on this site, cookies collect data to enhance your experience and personalize the content and advertising you see.
Visit our Privacy Policy to learn more. By continuing to use the site, you agree to this use of cookies and data.
  • Em Portugal
  • Lista de países
  • Para 7 dias
  • Temperatura da água
  • Mapas de satélite
  • Mapa do tempo
  • Widgets de tempo
  • user-avatar
    Iniciar Sessão

    Previsão horária em Levzha

    Hoje, 20 Junho, Quinta-feira

    Tempo Temperatura Precipitação Vento Pressão Humidade
    00:00 +18°C° 0 mm 1 m/s 744 mmHg 86%
    01:00 +16°C° 0 mm 1 m/s 744 mmHg 87%
    02:00 +16°C° 0 mm 1 m/s 745 mmHg 87%
    03:00 +16°C° 0 mm 1 m/s 745 mmHg 87%
    04:00 +18°C° 0 mm 1 m/s 745 mmHg 86%
    05:00 +19°C° 0 mm 1 m/s 745 mmHg 85%
    06:00 +19°C° 0 mm 1 m/s 745 mmHg 85%
    07:00 +20°C° 0 mm 2 m/s 746 mmHg 80%
    08:00 +23°C° 0 mm 2 m/s 746 mmHg 75%
    09:00 +24°C° 0 mm 2 m/s 746 mmHg 70%
    10:00 +25°C° 0 mm 2 m/s 746 mmHg 66%
    11:00 +26°C° 0 mm 3 m/s 746 mmHg 62%
    12:00 +27°C° 0 mm 3 m/s 746 mmHg 57%
    13:00 +27°C° 0 mm 3 m/s 746 mmHg 56%
    14:00 +27°C° 0 mm 3 m/s 746 mmHg 55%
    15:00 +28°C° 0 mm 2 m/s 745 mmHg 56%
    16:00 +27°C° 0 mm 2 m/s 746 mmHg 59%
    17:00 +27°C° 0 mm 2 m/s 746 mmHg 62%
    18:00 +26°C° 0 mm 2 m/s 746 mmHg 64%
    19:00 +25°C° 0 mm 1 m/s 746 mmHg 67%
    20:00 +23°C° 0 mm 1 m/s 746 mmHg 70%
    21:00 +19°C° 0 mm 0 m/s 746 mmHg 73%
    22:00 +18°C° 0 mm 0 m/s 746 mmHg 74%
    23:00 +18°C° 0 mm 0 m/s 746 mmHg 75%

    Amanhã, 21 Junho, Sexta-feira

    Tempo Temperatura Precipitação Vento Pressão Humidade
    00:00 +17°C° 0 mm 0 m/s 747 mmHg 76%
    01:00 +19°C° 0 mm 1 m/s 747 mmHg 77%
    02:00 +18°C° 0 mm 1 m/s 747 mmHg 79%
    03:00 +18°C° 0 mm 1 m/s 748 mmHg 80%
    04:00 +19°C° 0 mm 1 m/s 748 mmHg 79%
    05:00 +20°C° 0 mm 1 m/s 748 mmHg 77%
    06:00 +19°C° 0 mm 0 m/s 748 mmHg 76%
    07:00 +21°C° 0 mm 0 m/s 748 mmHg 71%
    08:00 +24°C° 0 mm 1 m/s 748 mmHg 67%
    09:00 +26°C° 0 mm 1 m/s 749 mmHg 62%
    10:00 +27°C° 0 mm 1 m/s 749 mmHg 56%
    11:00 +28°C° 0 mm 1 m/s 748 mmHg 51%
    12:00 +28°C° 0 mm 1 m/s 748 mmHg 45%
    13:00 +28°C° 0 mm 1 m/s 748 mmHg 46%
    14:00 +29°C° 0 mm 1 m/s 748 mmHg 47%
    15:00 +29°C° 0 mm 2 m/s 748 mmHg 48%
    16:00 +28°C° 0 mm 2 m/s 748 mmHg 52%
    17:00 +28°C° 0 mm 2 m/s 748 mmHg 57%
    18:00 +27°C° 0 mm 2 m/s 748 mmHg 61%
    19:00 +26°C° 0 mm 2 m/s 748 mmHg 61%
    20:00 +24°C° 0 mm 1 m/s 748 mmHg 62%
    21:00 +22°C° 0 mm 1 m/s 748 mmHg 62%
    22:00 +22°C° 0 mm 1 m/s 748 mmHg 63%
    23:00 +20°C° 0 mm 2 m/s 748 mmHg 63%

    Depois de amanhã, 22 Junho, Sábado

    Tempo Temperatura Precipitação Vento Pressão Humidade
    00:00 +20°C° 0 mm 2 m/s 748 mmHg 64%
    01:00 +20°C° 0 mm 2 m/s 748 mmHg 66%
    02:00 +19°C° 0 mm 2 m/s 748 mmHg 68%
    03:00 +20°C° 0 mm 1 m/s 748 mmHg 69%
    04:00 +20°C° 0 mm 2 m/s 748 mmHg 72%
    05:00 +20°C° 0 mm 2 m/s 748 mmHg 75%
    06:00 +21°C° 0 mm 2 m/s 748 mmHg 77%
    07:00 +23°C° 0 mm 2 m/s 748 mmHg 75%
    08:00 +24°C° 0 mm 3 m/s 749 mmHg 73%
    09:00 +25°C° 0 mm 3 m/s 749 mmHg 71%
    10:00 +26°C° 0.2 mm 3 m/s 749 mmHg 66%
    11:00 +27°C° 0.2 mm 4 m/s 748 mmHg 62%
    12:00 +28°C° 0.2 mm 4 m/s 748 mmHg 58%
    13:00 +28°C° 0.1 mm 5 m/s 748 mmHg 57%
    14:00 +29°C° 0.1 mm 5 m/s 748 mmHg 57%
    15:00 +29°C° 0.1 mm 5 m/s 748 mmHg 57%
    16:00 +28°C° 0 mm 4 m/s 747 mmHg 62%
    17:00 +28°C° 0 mm 4 m/s 747 mmHg 67%
    18:00 +27°C° 0 mm 3 m/s 747 mmHg 72%
    19:00 +26°C° 0 mm 3 m/s 747 mmHg 73%
    20:00 +24°C° 0 mm 3 m/s 747 mmHg 75%
    21:00 +22°C° 0 mm 3 m/s 747 mmHg 76%
    22:00 +21°C° 0 mm 3 m/s 747 mmHg 77%
    23:00 +21°C° 0 mm 3 m/s 747 mmHg 79%

    23 Junho, Domingo

    Tempo Temperatura Precipitação Vento Pressão Humidade
    00:00 +20°C° 0 mm 3 m/s 747 mmHg 80%
    01:00 +20°C° 0 mm 3 m/s 747 mmHg 81%
    02:00 +19°C° 0 mm 3 m/s 747 mmHg 82%
    03:00 +19°C° 0 mm 3 m/s 747 mmHg 83%
    04:00 +20°C° 0 mm 3 m/s 748 mmHg 83%
    05:00 +20°C° 0 mm 4 m/s 748 mmHg 82%
    06:00 +21°C° 0 mm 4 m/s 748 mmHg 81%
    07:00 +23°C° 0 mm 4 m/s 748 mmHg 78%
    08:00 +25°C° 0 mm 4 m/s 748 mmHg 75%
    09:00 +27°C° 0 mm 4 m/s 748 mmHg 71%
    10:00 +27°C° 0 mm 4 m/s 748 mmHg 68%
    11:00 +28°C° 0 mm 4 m/s 748 mmHg 65%
    12:00 +29°C° 0 mm 5 m/s 748 mmHg 62%
    13:00 +29°C° 0.1 mm 4 m/s 747 mmHg 62%
    14:00 +29°C° 0.1 mm 4 m/s 747 mmHg 62%
    15:00 +29°C° 0.1 mm 4 m/s 747 mmHg 62%
    16:00 +29°C° 0.2 mm 4 m/s 747 mmHg 66%
    17:00 +28°C° 0.2 mm 4 m/s 747 mmHg 70%
    18:00 +27°C° 0.2 mm 3 m/s 747 mmHg 75%
    19:00 +26°C° 0 mm 3 m/s 747 mmHg 78%
    20:00 +24°C° 0 mm 3 m/s 747 mmHg 81%
    21:00 +23°C° 0 mm 2 m/s 747 mmHg 84%
    22:00 +21°C° 0 mm 2 m/s 747 mmHg 86%
    23:00 +21°C° 0 mm 2 m/s 747 mmHg 89%

    24 Junho, Segunda-feira

    Tempo Temperatura Precipitação Vento Pressão Humidade
    00:00 +20°C° 0 mm 2 m/s 747 mmHg 92%
    01:00 +19°C° 0 mm 2 m/s 747 mmHg 92%
    02:00 +19°C° 0 mm 2 m/s 747 mmHg 92%
    03:00 +18°C° 0 mm 2 m/s 747 mmHg 93%
    04:00 +18°C° 0 mm 3 m/s 747 mmHg 88%
    05:00 +18°C° 0 mm 3 m/s 748 mmHg 83%
    06:00 +18°C° 0 mm 3 m/s 748 mmHg 79%
    07:00 +19°C° 0 mm 4 m/s 748 mmHg 73%
    08:00 +20°C° 0 mm 4 m/s 748 mmHg 68%
    09:00 +21°C° 0 mm 5 m/s 749 mmHg 63%
    10:00 +21°C° 0 mm 5 m/s 749 mmHg 59%
    11:00 +22°C° 0 mm 5 m/s 749 mmHg 56%
    12:00 +23°C° 0 mm 5 m/s 750 mmHg 52%
    13:00 +23°C° 0 mm 5 m/s 750 mmHg 52%
    14:00 +22°C° 0 mm 5 m/s 750 mmHg 52%
    15:00 +22°C° 0 mm 5 m/s 750 mmHg 52%
    16:00 +22°C° 0 mm 4 m/s 750 mmHg 56%
    17:00 +21°C° 0 mm 4 m/s 750 mmHg 60%
    18:00 +21°C° 0 mm 3 m/s 750 mmHg 65%
    19:00 +19°C° 0 mm 3 m/s 750 mmHg 67%
    20:00 +17°C° 0 mm 3 m/s 750 mmHg 69%
    21:00 +14°C° 0 mm 3 m/s 750 mmHg 70%
    22:00 +13°C° 0 mm 3 m/s 750 mmHg 73%
    23:00 +13°C° 0 mm 3 m/s 750 mmHg 76%

    25 Junho, Terça-feira

    Tempo Temperatura Precipitação Vento Pressão Humidade
    00:00 +13°C° 0 mm 2 m/s 750 mmHg 78%
    01:00 +12°C° 0 mm 2 m/s 751 mmHg 80%
    02:00 +12°C° 0 mm 2 m/s 751 mmHg 82%
    03:00 +12°C° 0 mm 2 m/s 751 mmHg 84%
    04:00 +11°C° 0 mm 3 m/s 751 mmHg 83%
    05:00 +12°C° 0 mm 3 m/s 751 mmHg 81%
    06:00 +13°C° 0 mm 3 m/s 751 mmHg 79%
    07:00 +14°C° 0 mm 4 m/s 751 mmHg 75%
    08:00 +15°C° 0 mm 4 m/s 751 mmHg 71%
    09:00 +17°C° 0 mm 4 m/s 751 mmHg 66%
    10:00 +17°C° 0 mm 5 m/s 751 mmHg 64%
    11:00 +17°C° 0 mm 5 m/s 751 mmHg 62%
    12:00 +19°C° 0 mm 5 m/s 751 mmHg 59%
    13:00 +19°C° 0 mm 5 m/s 751 mmHg 58%
    14:00 +19°C° 0 mm 5 m/s 751 mmHg 57%
    15:00 +19°C° 0 mm 6 m/s 751 mmHg 56%
    16:00 +17°C° 0 mm 5 m/s 751 mmHg 59%
    17:00 +17°C° 0 mm 5 m/s 751 mmHg 62%
    18:00 +17°C° 0 mm 4 m/s 750 mmHg 64%
    19:00 +16°C° 0 mm 3 m/s 750 mmHg 69%
    20:00 +14°C° 0 mm 2 m/s 750 mmHg 75%
    21:00 +12°C° 0 mm 1 m/s 750 mmHg 80%
    22:00 +12°C° 0 mm 1 m/s 750 mmHg 81%
    23:00 +11°C° 0 mm 1 m/s 750 mmHg 82%
    Mostrar mais